sat.trackr.live / text

‹ back to catalog

STARLINK-30520

NORAD 58010 · 2023-153V

PAYLOAD ACTIVE UNKNOWN

§ Identity

Operator
Country
US
Launch date
2023-10-05
Launch site
AFETR
Launch vehicle
Mass (kg)
RCS (m²)

Purposes: comms

External: N2YO · Heavens-Above · Gunter

§ Orbital elements

Epoch: 2026-09-20T09:17:53.509632Z

Period
94.27 min
Inclination
43.0066°
Eccentricity
0.0001707
Mean motion
15.27572753 rev/d
Perigee alt
481.9 km
Apogee alt
484.2 km
Semi-major
6,861.2 km
B*
-2.3401e-6
RAAN
47.4183°
Arg perigee
267.9593°
Mean anomaly
92.1063°
Rev number
16,457

§ Raw data

STARLINK-305201 58010U 23153V   26263.38742488 -.00000327  00000+0 -23401-5 0  99992 58010  43.0066  47.4183 0001707 267.9593  92.1063 15.27572753164576

JSON: /api/v1/satellites/58010 · /tle

For live sub-satellite position, see the globe view (requires WebGL).

§ Visibility from observer

Set your observer location to see the next 7 days of passes ≥ 10°. The values pass through the URL so the page stays shareable.

No JS? Fill the form by hand. The geolocation button needs JavaScript.